Total_Precipitation_Accumulation
0.02 0.06 0.20 0.40 0.62 0.99 1.11 0.68 0.52 0.54 0.46 0.44 0.39 0.35 0.39 0.48 0.54 0.86 0.55 0.26 0.12 0.08 0.08 0.15 0.19 0.14 0.12 0.15 0.20 0.23 0.23 0.19 0.18 0.19 0.20 0.19 0.18 0.19 0.20 0.26 0.40 0.46 0.40 0.34 0.35 0.33 0.33 0.32 0.27
0.02 0.08 0.22 0.46 0.85 1.35 1.11 0.56 0.46 0.54 0.42 0.44 0.45 0.43 0.45 0.47 0.40 0.32 0.35 0.26 0.12 0.09 0.10 0.12 0.17 0.17 0.15 0.15 0.20 0.23 0.23 0.22 0.23 0.23 0.20 0.19 0.19 0.20 0.21 0.25 0.32 0.37 0.34 0.30 0.26 0.26 0.25 0.21 0.16
0.05 0.12 0.23 0.39 0.80 1.11 0.81 0.48 0.37 0.39 0.39 0.50 0.62 0.55 0.55 0.52 0.46 0.41 0.38 0.25 0.17 0.13 0.10 0.16 0.19 0.22 0.20 0.17 0.20 0.23 0.25 0.25 0.26 0.24 0.22 0.21 0.21 0.21 0.21 0.22 0.24 0.26 0.25 0.23 0.22 0.23 0.21 0.17 0.13
0.05 0.15 0.25 0.34 0.48 0.44 0.41 0.43 0.33 0.43 0.56 0.55 0.62 0.71 0.63 0.49 0.46 0.51 0.51 0.37 0.23 0.19 0.16 0.20 0.23 0.22 0.25 0.22 0.23 0.26 0.26 0.26 0.24 0.22 0.22 0.21 0.22 0.24 0.22 0.21 0.23 0.27 0.27 0.24 0.24 0.24 0.23 0.18 0.15
0.07 0.16 0.24 0.33 0.39 0.32 0.29 0.34 0.34 0.43 0.49 0.54 0.57 0.82 0.79 0.62 0.52 0.52 0.48 0.48 0.33 0.38 0.31 0.30 0.33 0.31 0.27 0.24 0.24 0.24 0.25 0.28 0.25 0.23 0.23 0.22 0.24 0.23 0.21 0.20 0.20 0.22 0.25 0.25 0.24 0.24 0.20 0.22 0.23
0.06 0.13 0.25 0.26 0.27 0.26 0.26 0.31 0.36 0.43 0.51 0.61 0.72 0.95 0.92 0.74 0.70 0.70 0.70 0.63 0.45 0.51 0.48 0.41 0.39 0.37 0.34 0.29 0.29 0.31 0.28 0.28 0.28 0.27 0.24 0.23 0.21 0.21 0.21 0.21 0.19 0.16 0.18 0.21 0.24 0.27 0.24 0.23 0.27
0.03 0.07 0.13 0.16 0.16 0.22 0.24 0.24 0.32 0.51 0.73 0.82 0.93 1.09 0.99 1.07 1.04 1.00 0.99 0.87 0.68 0.63 0.59 0.50 0.44 0.38 0.38 0.36 0.36 0.38 0.36 0.34 0.32 0.29 0.25 0.22 0.20 0.20 0.20 0.21 0.20 0.18 0.17 0.18 0.20 0.22 0.21 0.20 0.24
0.01 0.04 0.06 0.09 0.13 0.18 0.19 0.19 0.24 0.39 0.76 0.85 0.89 0.91 1.08 1.06 1.07 1.35 1.31 1.23 1.05 0.95 0.75 0.63 0.60 0.57 0.52 0.46 0.43 0.45 0.40 0.38 0.39 0.34 0.32 0.30 0.29 0.26 0.28 0.27 0.26 0.26 0.25 0.22 0.20 0.22 0.23 0.23 0.24
0.01 0.06 0.07 0.06 0.10 0.13 0.13 0.17 0.23 0.35 0.53 0.74 0.89 0.83 0.90 0.87 0.95 1.27 1.46 1.62 1.53 1.24 1.04 0.87 0.78 0.74 0.69 0.61 0.54 0.58 0.55 0.52 0.52 0.50 0.47 0.44 0.44 0.46 0.50 0.44 0.47 0.44 0.44 0.45 0.43 0.44 0.44 0.41 0.33
0.01 0.05 0.05 0.04 0.08 0.11 0.10 0.12 0.16 0.39 0.81 1.14 1.22 1.00 0.98 1.04 1.29 1.56 1.64 1.67 1.72 1.40 1.14 1.07 1.00 0.87 0.78 0.67 0.74 0.90 0.81 0.76 0.75 0.80 0.76 0.75 0.81 0.77 0.59 0.63 0.79 0.93 0.97 0.94 1.01 1.12 0.91 0.72 0.75
0.01 0.02 0.03 0.04 0.06 0.05 0.04 0.08 0.16 0.34 0.80 1.11 1.22 1.15 1.20 1.25 1.52 1.82 1.91 1.73 1.76 1.67 1.40 1.30 1.21 1.10 1.06 1.11 1.01 1.05 1.04 1.07 1.03 1.07 1.11 1.13 1.01 0.87 0.82 0.93 1.14 1.33 1.38 1.36 1.66 1.71 1.24 1.32 1.62
0.00 0.01 0.02 0.03 0.05 0.03 0.03 0.08 0.24 0.39 0.63 0.90 0.94 1.42 1.60 1.44 1.70 1.86 1.91 2.00 2.01 1.98 1.70 1.53 1.45 1.42 1.39 1.31 1.27 1.18 1.20 1.24 1.28 1.35 1.36 1.47 1.54 1.43 1.40 1.48 1.53 1.70 1.81 2.03 2.14 2.25 1.94 1.92 1.82
0.00 0.01 0.02 0.03 0.04 0.05 0.07 0.14 0.20 0.46 0.60 0.80 0.99 1.34 1.55 1.46 1.74 1.97 2.18 2.24 2.30 2.12 1.86 1.83 1.65 1.55 1.57 1.64 1.67 1.54 1.62 1.58 1.56 1.67 1.74 1.81 2.01 2.00 1.97 1.86 1.86 1.80 1.98 2.18 2.48 2.40 2.63 2.56 2.28
0.01 0.02 0.02 0.03 0.04 0.08 0.23 0.32 0.31 0.56 0.65 0.81 1.06 1.44 1.52 1.45 1.55 1.52 1.79 2.08 2.23 2.06 1.93 1.91 1.81 1.87 1.98 1.98 1.98 2.05 2.06 2.03 1.98 1.95 1.99 2.03 2.24 2.46 2.39 2.17 2.14 2.03 2.10 2.41 2.64 2.65 3.02 2.85 2.69
0.01 0.06 0.07 0.07 0.11 0.18 0.28 0.49 0.51 0.64 0.70 0.92 1.01 1.22 1.37 1.33 1.39 1.50 1.65 1.84 1.96 1.85 1.97 2.14 2.28 2.43 2.56 2.59 2.56 2.49 2.51 2.41 2.39 2.52 2.54 2.55 2.54 2.59 2.47 2.32 2.23 2.34 2.46 2.63 2.67 2.77 3.08 2.81 2.69
0.03 0.11 0.18 0.19 0.19 0.24 0.42 0.86 0.80 0.83 0.80 0.88 0.94 1.10 1.21 1.23 1.34 1.59 1.68 1.77 1.83 1.81 1.97 2.22 2.36 2.66 2.87 2.94 3.04 3.02 2.94 2.79 2.85 2.84 2.84 2.82 2.73 2.62 2.67 2.43 2.24 2.48 2.61 2.77 2.93 2.90 2.97 2.97 2.92
0.06 0.13 0.21 0.25 0.17 0.18 0.34 0.67 0.63 0.73 0.91 0.87 0.89 0.95 1.00 1.04 1.13 1.30 1.51 1.63 1.79 2.06 2.34 2.71 2.80 2.76 2.86 3.05 3.20 3.04 2.98 2.87 2.80 2.71 2.71 2.62 2.54 2.52 2.78 2.59 2.56 2.68 2.87 2.77 2.59 2.95 3.07 3.01 2.99
0.06 0.10 0.15 0.20 0.19 0.16 0.29 0.47 0.57 0.67 0.82 0.92 0.91 0.97 1.05 1.13 1.34 1.52 1.72 1.86 2.02 2.40 2.75 2.90 2.96 3.19 3.48 3.68 3.59 3.34 3.00 2.76 2.63 2.54 2.42 2.39 2.46 2.50 2.75 2.55 2.59 2.78 2.96 3.01 3.00 3.08 3.05 2.92 2.98
0.04 0.10 0.14 0.16 0.21 0.22 0.32 0.41 0.66 0.86 0.98 1.09 1.22 1.41 1.55 1.72 1.82 1.93 2.15 2.32 2.38 2.43 2.66 2.91 3.24 3.61 3.72 3.63 3.58 3.50 3.18 2.88 2.51 2.27 2.25 2.33 2.30 2.41 2.67 2.41 2.70 2.85 2.88 2.99 3.02 3.16 3.05 2.88 3.05
0.06 0.11 0.15 0.19 0.24 0.23 0.36 0.48 0.70 1.07 1.17 1.13 1.15 1.19 1.22 1.58 1.82 1.99 2.19 2.30 2.25 2.37 2.64 2.99 3.27 3.60 3.57 3.68 3.83 3.71 3.45 2.86 2.48 2.27 2.23 2.25 2.26 2.28 2.42 2.70 2.75 2.83 2.90 2.91 2.86 2.89 2.70 2.52 2.87
0.08 0.10 0.15 0.20 0.30 0.27 0.37 0.69 0.89 1.14 1.26 1.12 1.08 1.09 1.00 1.18 1.49 1.63 1.76 1.90 2.13 2.47 2.87 3.12 3.31 3.40 3.44 3.56 3.61 3.29 3.07 2.64 2.50 2.47 2.34 2.26 2.34 2.38 2.48 2.65 2.74 2.67 2.60 2.65 2.74 2.64 2.49 2.34 2.47
0.10 0.08 0.09 0.14 0.25 0.38 0.46 0.97 1.27 1.45 1.31 1.06 1.09 1.15 1.22 1.29 1.31 1.41 1.55 1.82 2.16 2.48 2.89 3.27 3.25 3.22 3.17 3.29 3.35 3.16 2.86 2.60 2.47 2.46 2.24 2.08 2.05 2.10 2.20 2.27 2.43 2.49 2.48 2.46 2.41 2.39 2.41 2.36 2.24
0.07 0.06 0.07 0.13 0.21 0.37 0.53 0.90 1.32 1.39 1.28 1.03 0.96 1.12 1.32 1.27 1.21 1.31 1.45 1.67 1.87 2.16 2.47 2.82 3.04 3.07 2.97 2.97 2.97 2.93 2.70 2.44 2.27 2.20 2.08 2.01 2.02 1.91 1.90 2.00 2.19 2.24 2.16 2.16 2.29 2.46 2.43 2.29 2.16
0.05 0.06 0.11 0.21 0.38 0.66 0.53 0.66 1.06 1.26 1.14 0.92 0.92 1.03 1.17 1.33 1.34 1.38 1.56 1.70 1.77 1.95 2.20 2.41 2.58 2.65 2.61 2.55 2.55 2.57 2.47 2.38 2.20 2.04 2.05 2.06 1.98 1.83 1.77 1.79 1.89 1.95 1.95 1.92 1.97 2.08 2.12 2.10 2.19
0.07 0.15 0.44 0.76 1.05 0.92 0.58 0.68 1.02 0.94 0.80 0.71 0.77 0.97 1.18 1.42 1.42 1.47 1.63 1.72 1.77 1.81 1.86 1.95 2.01 2.10 2.04 1.98 1.98 2.03 2.03 2.01 1.91 1.87 1.92 1.94 1.87 1.76 1.71 1.65 1.60 1.60 1.63 1.71 1.88 1.90 1.91 1.99 2.10
0.10 0.19 0.52 0.68 0.80 0.76 0.72 0.95 0.99 0.76 0.64 0.65 0.72 0.85 1.08 1.23 1.27 1.35 1.42 1.35 1.29 1.31 1.36 1.43 1.45 1.48 1.46 1.51 1.60 1.62 1.72 1.71 1.66 1.77 1.77 1.79 1.75 1.69 1.57 1.44 1.38 1.36 1.39 1.48 1.66 1.84 1.84 1.93 1.98
0.19 0.24 0.25 0.41 0.48 0.74 0.89 1.00 0.91 0.66 0.74 0.79 0.85 0.88 0.91 0.92 0.91 0.91 0.93 0.97 1.02 1.04 1.05 1.07 1.11 1.12 1.07 1.09 1.23 1.31 1.38 1.41 1.42 1.51 1.54 1.49 1.47 1.39 1.35 1.32 1.30 1.25 1.28 1.32 1.37 1.50 1.52 1.61 1.66
0.20 0.32 0.43 0.63 0.80 0.88 0.87 1.13 1.23 1.08 1.01 0.95 1.07 1.27 1.10 0.81 0.73 0.69 0.66 0.69 0.73 0.75 0.82 0.89 0.96 1.06 1.03 0.96 0.98 1.00 1.07 1.11 1.21 1.26 1.27 1.30 1.33 1.29 1.21 1.21 1.21 1.16 1.14 1.16 1.19 1.24 1.30 1.28 1.33
0.31 0.39 0.49 0.61 0.69 0.83 0.93 1.07 0.94 1.07 1.06 1.03 1.06 1.10 0.92 0.60 0.46 0.44 0.40 0.44 0.51 0.63 0.71 0.75 0.87 0.96 0.91 0.81 0.81 0.85 0.86 0.91 0.98 1.05 1.06 1.11 1.16 1.22 1.21 1.17 1.13 1.03 0.97 0.97 1.00 1.01 1.11 1.13 1.12
0.27 0.40 0.50 0.66 0.69 0.72 0.86 0.96 0.62 0.73 0.75 0.74 0.78 0.68 0.56 0.40 0.30 0.26 0.26 0.29 0.36 0.45 0.50 0.58 0.68 0.78 0.81 0.77 0.78 0.83 0.85 0.85 0.86 0.89 0.88 0.90 0.95 0.97 0.96 0.95 1.02 1.04 1.03 1.00 0.99 0.96 0.95 1.01 1.03